User: anonymous   Login
Location: Newark
(43.0000°N, 1.6781°W)
Time: 10:22:39
(UTC+00:00)
Language:

PicSat - Orbit

View from above orbital plane
View from above orbital plane
View from above satellite
View from above satellite

Ground track
Ground track

The orbit data is extracted from the following two-line orbital elements,

1 43131U 18004W   22333.68092095  .00040175  00000-0  80361-3 0  9995
2 43131  97.3614  54.2194 0005587 114.7912 245.3919 15.46658401272014
Epoch (UTC): 29 November 2022 16:20:31
Eccentricity: 0.0005587
inclination: 97.3614°
perigee height: 423 km
apogee height: 430 km
right ascension of ascending node: 54.2194°
argument of perigee: 114.7912°
revolutions per day: 15.46658401
mean anomaly at epoch: 245.3919°
orbit number at epoch: 27201

The dashed part of the orbit path shows where the satellite is in the earth's shadow,  

DLR